Temperature
22 19 18 19 19 20 20 21 20 21 22 21 20 19 18 18 18 17 17 17 16 17 17 17 17 16 16 16 16 16 16 15 15 15 15 15 14 14 14 14 13 13 13 13
19 19 20 21 21 21 21 21 21 21 22 21 20 19 19 18 18 18 17 16 16 16 16 16 16 16 16 16 16 16 15 15 15 15 14 14 14 13 13 13 13 13 13 13
19 20 22 22 22 22 21 21 21 21 21 21 20 19 18 18 18 18 17 17 16 16 16 16 16 16 15 15 15 15 15 14 14 14 14 14 13 13 13 13 13 13 13 13
20 21 22 22 22 22 21 22 22 22 20 19 20 18 18 18 17 17 17 16 16 16 16 16 16 15 15 15 15 15 14 14 14 14 14 13 13 13 13 13 12 12 12 12
20 22 22 22 23 23 22 22 22 21 20 18 18 18 17 17 17 17 16 16 16 16 16 16 15 15 15 14 14 14 14 13 13 13 13 13 13 13 12 12 12 12 12 12
21 22 22 23 23 23 23 21 20 18 17 17 18 18 17 17 17 17 16 16 16 16 16 15 15 15 14 14 14 14 13 13 13 13 13 12 12 12 12 12 12 11 11 11
21 22 23 24 23 22 21 19 18 18 16 17 18 17 17 17 18 17 16 16 15 15 15 15 14 14 14 14 13 13 13 13 13 12 12 12 12 12 11 11 11 11 11 11
20 21 22 23 23 22 21 19 18 18 17 17 17 17 17 17 17 17 17 16 15 15 14 14 14 14 13 13 13 13 13 12 12 12 12 11 11 11 11 11 11 10 10 10
20 21 23 24 24 23 21 19 18 17 17 16 16 17 17 16 16 16 15 15 14 14 14 14 14 13 13 13 13 13 12 12 12 11 11 11 11 11 11 10 10 10 10 10
20 21 22 23 23 22 21 20 17 17 17 17 17 17 16 16 15 15 14 14 14 14 14 14 13 13 13 13 12 12 12 12 11 11 11 11 10 10 10 10 10 10 10 9
20 19 20 21 21 21 21 20 17 16 16 16 16 16 17 16 15 14 14 14 14 13 13 13 13 13 12 12 12 12 11 11 11 10 10 10 10 10 10 10 9 9 9 9
19 17 18 20 21 21 21 20 17 17 16 16 15 16 17 15 15 15 14 14 13 13 13 13 13 12 12 12 11 11 11 11 10 10 10 10 10 10 9 9 9 9 9 9
19 17 17 18 19 19 20 20 18 16 15 15 15 16 16 15 14 14 14 14 13 13 13 12 12 12 12 11 11 11 11 10 10 10 10 10 9 9 9 9 9 9 9 9
19 17 17 18 18 19 19 20 19 17 15 15 16 16 15 14 14 14 13 13 13 13 13 12 12 12 11 11 11 11 10 10 10 10 10 9 9 9 9 9 9 9 8 8
18 18 19 19 19 20 20 20 20 18 17 16 16 16 15 15 14 14 13 13 13 12 12 12 12 11 11 11 11 10 10 10 10 10 9 9 9 9 9 8 8 8 8 8
16 18 18 18 20 19 19 20 19 19 18 17 16 16 15 15 15 14 13 13 12 12 12 12 11 11 11 11 11 10 10 10 10 9 9 9 9 9 8 8 8 8 8 8
16 17 17 17 18 19 18 18 19 18 18 17 16 15 14 14 14 13 13 13 13 12 12 12 11 11 11 11 11 10 10 10 9 9 9 9 9 8 8 8 8 8 8 8
16 16 14 15 17 17 18 19 19 18 17 17 16 15 15 15 15 14 14 14 13 12 12 12 11 11 11 11 10 10 10 10 9 9 9 9 9 8 8 8 8 8 8 8
16 16 15 14 16 17 18 19 18 17 16 16 15 15 15 15 14 13 14 14 14 13 13 12 12 11 11 10 10 10 10 9 9 9 9 9 8 8 8 8 8 8 8 8
16 15 15 15 16 16 17 18 19 17 15 16 15 14 14 14 12 12 13 14 13 13 12 12 11 11 10 10 10 10 10 9 9 9 9 9 8 8 8 8 8 8 8 8
16 15 15 15 15 16 17 18 18 16 15 16 16 15 15 14 14 14 14 13 13 13 12 12 11 11 10 10 10 10 9 9 9 9 9 9 8 8 8 8 8 8 8 8
15 15 14 14 15 15 17 18 16 15 16 16 16 16 15 15 14 14 14 13 13 12 12 11 11 11 10 10 10 10 9 9 9 9 9 9 8 8 8 8 8 8 8 8
15 15 14 14 14 16 18 18 18 18 16 16 16 16 15 14 14 13 13 13 12 12 11 11 11 10 10 10 10 10 9 9 9 9 9 9 9 8 8 8 8 8 8 8
16 15 14 14 15 16 17 17 17 17 17 16 16 15 15 14 14 13 13 12 12 12 11 11 11 10 10 10 10 10 9 9 9 9 9 9 9 9 9 9 9 9 9 9
16 16 14 14 15 16 16 17 17 17 17 16 16 15 15 14 13 13 12 12 12 11 11 11 10 10 10 10 10 9 9 9 9 9 9 9 9 9 9 9 9 9 9 9
16 15 14 14 15 15 16 17 17 17 16 16 15 15 14 14 14 13 12 12 12 11 11 11 10 10 10 10 10 10 9 9 9 9 9 9 9 9 9 9 9 9 9 9
Wind_Speed
2 3 3 7 6 7 4 3 4 6 5 6 8 10 11 11 10 11 12 11 12 10 8 8 8 7 7 7 7 7 6 5 4 4 3 3 3 2 2 3 5 6 6 6
4 4 9 6 5 4 3 3 5 4 3 4 7 7 8 10 12 13 14 13 13 11 10 9 8 6 6 7 7 6 6 4 3 3 2 2 3 2 2 2 3 4 4 4
6 7 4 4 5 4 4 5 5 4 0 3 6 1 1 3 4 7 9 11 13 15 13 11 9 7 7 6 6 6 5 4 4 3 3 4 3 3 2 2 1 2 4 4
5 7 4 4 6 5 4 6 5 4 4 0 3 3 3 3 4 7 9 10 10 11 11 10 9 9 8 7 6 7 6 4 3 4 4 4 3 2 1 1 0 2 4 4
5 3 3 5 7 4 5 3 3 3 4 3 3 3 3 2 4 7 10 11 11 11 11 10 9 8 8 8 7 6 6 4 4 4 4 4 3 1 1 2 2 2 3 4
7 5 4 5 5 3 3 4 6 6 5 2 3 3 3 3 7 8 10 11 11 11 10 9 8 8 8 7 7 6 6 4 4 4 4 4 3 3 3 3 2 2 2 2
4 4 3 2 1 2 5 6 4 5 4 3 2 2 4 4 5 9 11 11 10 10 10 10 10 10 9 8 7 6 5 3 3 3 3 3 3 3 3 2 2 1 1 1
1 4 3 2 5 4 3 8 7 4 4 3 2 1 2 2 1 5 9 10 11 10 9 9 9 9 8 8 7 6 5 3 3 3 2 2 3 2 2 2 2 1 0 1
4 4 3 1 1 5 3 3 6 7 3 1 2 1 1 3 5 7 9 11 11 10 10 9 9 8 8 7 6 6 5 4 3 3 3 3 3 3 2 2 1 1 0 0
6 2 4 3 5 4 4 5 6 5 4 1 2 3 4 4 5 6 8 9 9 9 9 9 8 8 6 6 5 4 5 4 3 3 3 3 3 3 2 3 3 2 2 2
3 3 4 3 2 0 2 3 5 4 5 5 2 5 4 9 9 10 9 9 10 10 9 9 8 8 7 6 5 4 4 3 3 3 3 4 3 3 3 3 2 2 2 3
3 4 1 4 4 2 3 3 5 5 3 4 4 5 0 7 8 10 10 10 9 9 9 9 9 8 7 6 5 5 4 4 3 3 4 3 3 3 3 3 2 2 2 2
4 5 2 5 6 4 2 0 3 6 5 4 4 3 2 7 7 8 10 11 10 10 9 8 8 8 7 6 5 5 4 4 4 4 4 3 3 2 2 2 2 3 3 3
5 4 5 5 5 2 2 2 1 5 4 3 5 6 5 7 8 8 9 10 10 10 10 9 7 7 7 6 6 5 4 4 5 4 4 3 1 1 1 1 2 2 3 3
5 3 1 2 2 1 2 2 1 2 6 6 6 7 9 11 10 10 10 10 11 10 9 9 8 7 7 6 5 5 5 4 5 4 3 2 1 1 1 2 2 3 3 3
3 3 1 2 1 1 2 2 1 1 3 5 6 3 5 8 7 8 10 11 11 11 10 10 9 8 8 7 7 6 5 4 5 4 3 2 2 1 1 1 2 3 3 3
2 3 2 2 3 3 2 2 1 2 4 7 5 6 8 8 10 11 11 10 11 11 11 10 9 9 8 8 8 7 6 5 4 3 3 2 2 2 1 2 3 2 2 2
5 4 3 0 3 1 4 1 4 5 2 4 6 9 11 10 9 8 9 11 10 11 11 10 9 8 7 7 7 6 5 5 4 3 3 3 3 2 2 2 2 1 1 1
6 6 4 3 1 2 2 1 2 4 0 3 8 9 8 8 6 2 5 9 10 11 10 9 9 8 7 8 8 7 5 5 5 4 4 3 3 3 2 1 1 1 0 1
6 6 5 3 2 3 4 2 3 6 1 3 8 10 9 8 5 5 6 8 9 9 9 9 9 8 8 7 8 7 6 5 5 5 4 4 3 3 2 2 2 1 1 1
3 3 3 3 3 4 4 2 2 3 6 5 8 9 8 5 6 6 9 8 9 9 10 10 10 9 8 7 8 7 5 5 5 4 4 3 3 3 3 2 1 1 1 1
5 4 3 3 3 6 4 1 4 6 4 6 7 8 7 6 7 9 10 10 10 10 10 10 9 8 7 8 8 7 5 4 4 4 3 3 2 2 2 2 2 1 1 1
4 6 5 6 6 6 3 4 4 6 6 5 6 7 10 9 8 9 9 10 10 11 10 9 9 9 6 7 8 7 5 4 4 3 2 2 2 1 1 2 2 1 1 1
1 3 4 2 2 2 3 4 4 6 6 7 9 10 10 10 10 9 9 8 9 9 9 8 9 9 7 6 6 6 5 5 5 4 2 2 2 2 2 2 2 2 2 2
4 4 3 2 3 3 2 4 6 6 8 9 9 9 11 12 11 9 8 9 9 8 7 8 9 8 7 6 6 6 6 6 4 3 2 2 3 3 2 3 3 4 5 5
2 6 6 6 7 6 6 6 7 9 10 11 10 9 9 11 12 10 9 8 8 8 7 8 8 8 7 7 7 6 5 6 5 3 3 2 2 2 3 3 4 6 6 8
Wind_Direction
317 69 250 240 213 199 214 248 254 252 212 154 164 168 181 179 169 163 163 162 157 156 152 143 131 125 118 110 108 106 105 106 109 112 114 108 106 106 87 77 84 76 71 66
6 274 241 238 249 229 232 250 269 292 220 159 167 181 183 182 180 172 171 169 160 152 148 146 136 127 123 124 118 111 110 107 102 117 119 118 117 111 111 67 57 68 74 68
218 247 238 227 248 249 248 218 228 223 13 80 118 100 200 195 161 166 170 169 166 163 160 157 148 140 131 129 128 120 109 101 96 97 92 86 70 61 54 44 22 31 62 65
246 250 239 225 241 206 246 228 193 172 115 64 129 172 251 192 156 169 172 173 174 167 161 161 155 148 144 137 126 116 111 107 107 106 111 116 120 130 164 148 67 18 42 49
267 245 218 225 238 209 212 199 139 131 113 77 31 127 261 203 183 186 181 178 176 172 167 162 157 149 143 136 129 123 115 112 109 105 116 119 114 124 95 78 62 32 22 31
249 252 217 221 239 200 153 75 44 48 69 63 254 150 259 225 211 191 182 179 173 167 160 152 143 134 132 130 125 119 114 108 107 106 109 120 124 113 95 83 69 34 11 6
312 301 277 193 146 319 83 90 41 10 15 255 274 140 238 253 213 185 177 172 163 150 143 144 142 135 131 133 128 125 121 111 104 105 103 110 121 121 121 125 104 68 22 354
293 298 283 210 173 190 170 138 156 182 215 264 332 201 253 309 154 147 145 141 138 136 138 143 139 132 133 132 128 124 121 121 105 100 94 86 91 100 109 119 122 115 191 264
190 255 286 300 138 139 144 166 166 137 141 123 285 247 311 56 83 106 121 132 140 144 142 139 135 133 136 132 126 124 124 112 98 105 101 80 79 87 89 77 67 61 325 343
164 223 304 319 46 35 131 145 91 106 141 221 273 247 213 176 143 128 129 135 139 144 140 136 133 133 130 126 121 119 119 120 112 94 93 94 83 85 85 82 59 41 21 27
125 140 317 11 79 102 51 77 108 120 143 156 227 263 215 177 167 154 147 143 144 146 146 141 142 138 131 129 134 131 128 120 104 93 92 87 78 74 72 68 51 43 34 27
122 126 222 267 259 186 156 155 140 146 192 163 174 259 270 153 157 148 145 145 143 142 146 146 144 142 142 148 152 151 147 136 130 121 104 92 80 70 60 46 36 41 37 31
117 108 70 345 344 5 39 113 140 131 124 152 170 239 113 128 135 144 147 149 148 146 148 148 150 154 157 156 153 149 146 147 134 122 108 97 81 72 62 39 33 39 39 34
113 112 158 194 222 254 298 308 128 121 141 177 197 182 173 158 155 155 153 152 153 154 155 155 158 161 159 155 151 148 150 149 134 123 116 112 111 109 82 46 42 39 45 49
93 109 174 247 247 240 283 292 49 144 168 174 193 182 192 180 175 168 159 155 155 157 158 161 161 159 154 148 148 149 148 144 138 131 132 149 152 112 83 60 47 44 41 50
87 121 52 343 331 14 347 320 19 135 133 139 142 186 182 160 145 146 158 161 165 166 166 165 163 161 159 157 155 152 150 147 135 136 153 152 129 98 80 72 65 55 40 36
120 121 99 287 305 18 342 276 153 160 161 156 178 190 150 151 160 166 168 169 171 170 165 163 163 166 164 162 156 155 159 148 138 139 141 137 134 114 100 96 75 54 33 37
141 124 126 162 23 286 251 237 120 122 138 160 154 157 163 167 170 169 165 167 168 169 164 161 158 159 158 154 150 152 151 148 145 141 145 142 134 125 112 94 82 35 17 15
138 134 123 120 152 278 297 343 135 131 199 161 143 147 145 131 107 115 165 160 168 169 163 161 157 153 152 152 151 146 146 148 146 149 155 156 148 143 147 152 211 238 296 318
80 96 115 130 149 229 247 270 135 105 184 196 149 150 147 130 149 205 174 151 153 155 153 152 149 144 150 158 152 146 149 151 164 172 171 163 159 162 183 207 229 252 260 273
76 66 115 158 196 252 248 247 86 154 219 186 155 153 154 166 182 167 152 145 150 149 150 149 148 152 161 159 149 150 156 173 184 172 159 159 171 185 198 214 240 260 286 329
165 156 175 155 185 246 265 111 165 203 170 154 150 148 142 134 127 136 141 142 146 143 144 147 149 155 160 156 150 154 172 187 168 155 156 172 195 203 192 211 265 272 256 312
169 176 172 179 207 230 216 165 163 143 138 149 149 146 139 135 138 138 142 145 148 148 149 149 150 152 157 159 155 161 181 168 152 148 166 190 210 221 206 209 244 277 274 268
177 126 116 118 218 182 120 114 125 130 135 146 143 143 141 138 139 136 141 145 147 148 149 148 147 151 161 168 165 173 175 163 155 165 189 199 199 235 258 246 229 233 248 251
199 140 124 149 181 118 128 145 136 119 122 129 132 136 142 138 139 142 146 151 150 147 148 150 154 163 172 172 172 173 169 158 157 174 190 201 214 225 249 267 256 240 239 225
207 164 161 196 198 168 190 183 140 129 135 139 134 133 140 145 149 151 154 153 152 153 153 157 162 167 172 169 172 176 172 165 162 177 195 205 223 238 244 263 293 285 259 260
Height
1507 1513 1517 1514 1512 1515 1516 1520 1521 1516 1509 1513 1517 1521 1523 1524 1527 1529 1532 1534 1537 1539 1541 1543 1545 1547 1548 1549 1550 1551 1551 1552 1553 1554 1554 1553 1553 1553 1554 1554 1553 1552 1552 1551
1512 1515 1508 1506 1507 1510 1514 1519 1518 1513 1507 1511 1518 1521 1521 1523 1524 1525 1529 1532 1533 1537 1539 1541 1543 1546 1547 1548 1549 1550 1551 1552 1552 1553 1553 1553 1553 1553 1553 1553 1553 1552 1551 1550
1514 1508 1501 1504 1507 1509 1511 1515 1515 1514 1511 1511 1517 1527 1527 1525 1526 1528 1530 1531 1533 1534 1536 1539 1541 1544 1546 1548 1548 1549 1550 1550 1552 1553 1553 1553 1553 1552 1552 1552 1552 1551 1550 1550
1508 1502 1501 1504 1505 1505 1513 1504 1505 1509 1518 1527 1522 1540 1531 1526 1527 1528 1529 1531 1533 1533 1535 1538 1540 1542 1544 1546 1548 1549 1549 1550 1551 1552 1552 1551 1551 1551 1550 1551 1551 1550 1549 1549
1506 1499 1500 1503 1500 1499 1504 1500 1503 1508 1517 1528 1527 1537 1536 1527 1529 1528 1527 1529 1531 1532 1535 1537 1539 1542 1544 1545 1547 1548 1549 1550 1550 1550 1551 1550 1550 1550 1549 1549 1549 1549 1548 1548
1499 1495 1495 1495 1493 1495 1498 1503 1509 1517 1526 1540 1532 1536 1539 1530 1525 1524 1525 1526 1528 1531 1534 1536 1539 1541 1543 1545 1547 1548 1549 1549 1549 1549 1550 1550 1549 1549 1548 1548 1548 1548 1547 1547
1502 1495 1492 1491 1496 1497 1500 1517 1535 1539 1546 1544 1530 1534 1535 1523 1518 1518 1520 1523 1526 1529 1533 1535 1537 1539 1541 1544 1545 1547 1548 1548 1548 1549 1549 1549 1549 1548 1548 1548 1547 1547 1546 1545
1511 1510 1493 1489 1493 1499 1501 1512 1535 1545 1548 1544 1533 1535 1529 1519 1516 1516 1518 1521 1525 1528 1531 1534 1537 1539 1542 1543 1544 1546 1547 1547 1548 1549 1549 1549 1548 1548 1547 1547 1546 1546 1545 1544
1509 1507 1490 1487 1487 1491 1501 1508 1512 1528 1535 1543 1539 1532 1526 1519 1519 1519 1520 1523 1525 1528 1531 1533 1536 1539 1542 1543 1544 1545 1546 1547 1548 1548 1547 1547 1547 1547 1547 1546 1546 1545 1544 1543
1497 1504 1494 1488 1487 1490 1495 1501 1516 1528 1541 1547 1539 1534 1531 1524 1522 1521 1522 1524 1525 1528 1531 1533 1536 1539 1542 1543 1545 1546 1547 1547 1548 1548 1548 1548 1547 1547 1546 1546 1545 1544 1543 1542
1493 1505 1502 1495 1497 1499 1499 1504 1513 1525 1529 1542 1547 1538 1516 1517 1518 1519 1521 1523 1526 1528 1530 1533 1535 1538 1541 1543 1545 1546 1547 1547 1547 1548 1548 1548 1547 1547 1546 1545 1544 1543 1542 1541
1494 1505 1510 1502 1493 1491 1494 1500 1510 1524 1529 1531 1538 1535 1512 1513 1516 1518 1521 1524 1527 1529 1531 1533 1536 1538 1540 1542 1544 1546 1546 1547 1547 1548 1548 1548 1547 1547 1546 1545 1544 1543 1542 1541
1493 1506 1518 1515 1508 1499 1498 1498 1502 1512 1523 1530 1535 1531 1514 1514 1517 1519 1520 1523 1526 1529 1531 1534 1536 1538 1540 1542 1543 1545 1546 1547 1547 1548 1548 1548 1547 1547 1546 1545 1544 1543 1541 1540
1489 1503 1513 1518 1513 1504 1502 1499 1499 1508 1523 1525 1522 1521 1517 1516 1518 1519 1521 1522 1525 1528 1530 1533 1535 1537 1539 1541 1543 1545 1546 1546 1547 1547 1548 1547 1547 1547 1546 1545 1544 1543 1541 1540
1491 1502 1501 1500 1497 1497 1499 1498 1498 1503 1508 1516 1514 1514 1513 1513 1515 1517 1520 1522 1525 1527 1529 1532 1534 1536 1538 1540 1542 1544 1545 1546 1546 1547 1548 1547 1547 1547 1546 1545 1544 1543 1541 1540
1493 1500 1501 1502 1496 1496 1499 1497 1497 1498 1501 1505 1508 1512 1508 1510 1513 1517 1519 1521 1524 1526 1528 1531 1533 1535 1537 1540 1542 1543 1545 1546 1546 1547 1547 1547 1547 1547 1546 1545 1544 1542 1541 1540
1496 1500 1507 1511 1500 1499 1508 1500 1498 1499 1498 1503 1509 1509 1507 1511 1512 1515 1517 1520 1521 1524 1527 1530 1532 1534 1537 1539 1541 1542 1544 1545 1546 1547 1547 1547 1547 1546 1546 1545 1543 1542 1541 1540
1495 1501 1510 1512 1509 1518 1506 1493 1493 1496 1498 1497 1500 1502 1504 1507 1510 1512 1514 1517 1520 1523 1526 1529 1531 1534 1536 1538 1540 1542 1544 1545 1546 1546 1547 1547 1546 1546 1545 1544 1543 1542 1541 1540
1487 1497 1508 1516 1517 1511 1500 1494 1494 1498 1502 1498 1499 1502 1505 1507 1510 1513 1514 1516 1518 1521 1524 1527 1530 1533 1535 1537 1539 1541 1543 1544 1545 1546 1546 1546 1546 1545 1545 1544 1543 1542 1541 1540
1489 1494 1506 1512 1516 1517 1504 1493 1491 1496 1505 1499 1498 1501 1504 1506 1513 1513 1513 1515 1518 1521 1524 1526 1529 1532 1534 1537 1539 1541 1542 1544 1545 1545 1546 1546 1546 1545 1545 1544 1544 1543 1542 1540
1498 1501 1507 1512 1514 1507 1495 1491 1492 1505 1505 1497 1497 1499 1502 1503 1505 1508 1511 1514 1517 1520 1523 1526 1528 1531 1534 1536 1538 1540 1542 1543 1544 1545 1545 1546 1546 1545 1545 1544 1544 1543 1542 1541
1499 1504 1508 1510 1514 1511 1490 1490 1494 1496 1493 1495 1496 1498 1501 1502 1505 1508 1511 1513 1516 1519 1522 1525 1528 1531 1534 1536 1538 1540 1541 1543 1544 1545 1545 1545 1545 1545 1545 1544 1543 1543 1542 1541
1492 1494 1497 1501 1502 1492 1488 1488 1489 1490 1492 1494 1496 1498 1500 1502 1505 1508 1510 1513 1516 1519 1522 1525 1528 1530 1533 1536 1538 1540 1541 1543 1544 1544 1545 1545 1545 1545 1545 1544 1543 1542 1541 1540
1487 1486 1491 1495 1492 1490 1489 1489 1489 1490 1492 1494 1496 1498 1501 1503 1505 1508 1511 1514 1517 1520 1522 1525 1527 1530 1533 1536 1538 1540 1541 1542 1543 1544 1544 1545 1545 1544 1544 1544 1543 1542 1541 1540
1484 1485 1490 1492 1491 1490 1490 1489 1490 1492 1493 1495 1497 1499 1501 1503 1506 1509 1511 1514 1517 1520 1523 1525 1527 1530 1533 1535 1537 1539 1541 1542 1543 1544 1544 1544 1544 1544 1544 1543 1543 1542 1541 1540
1480 1482 1487 1490 1486 1488 1489 1489 1490 1492 1493 1495 1497 1500 1503 1504 1507 1509 1512 1515 1518 1520 1523 1525 1528 1530 1532 1534 1537 1539 1540 1541 1542 1543 1544 1544 1544 1544 1543 1543 1542 1541 1540 1539